This is the latest recevied weather packets stored in our database for station/object OK2ILA-13. If no packets are shown the sender has not sent any weather packets the latest 10 day(s).
| Time | Temp. | Humidity | Pressure | Rain* | Wind** | Luminosity | Snow |
|---|---|---|---|---|---|---|---|
| 1788496767 | 13.89° C | 82% | 1018.5 hPa | - | - | - | - |
| 1788496167 | 13.89° C | 83% | 1018.6 hPa | - | - | - | - |
| 1788495567 | 14.44° C | 82% | 1018.5 hPa | - | - | - | - |
| 1788494967 | 14.44° C | 82% | 1018.3 hPa | - | - | - | - |
| 1788494368 | 13.89° C | 83% | 1018.4 hPa | - | - | - | - |
| 1788493768 | 13.89° C | 83% | 1018.4 hPa | - | - | - | - |
| 1788493168 | 13.89° C | 82% | 1018.4 hPa | - | - | - | - |
| 1788492568 | 13.89° C | 82% | 1018.5 hPa | - | - | - | - |
| 1788491969 | 13.89° C | 82% | 1018.5 hPa | - | - | - | - |
| 1788491368 | 13.89° C | 82% | 1018.5 hPa | - | - | - | - |
| 1788490768 | 13.89° C | 83% | 1018.7 hPa | - | - | - | - |
| 1788489567 | 13.33° C | 83% | 1018.7 hPa | - | - | - | - |
| 1788488968 | 13.89° C | 83% | 1018.7 hPa | - | - | - | - |
| 1788487168 | 13.89° C | 81% | 1018.7 hPa | - | - | - | - |
| 1788485369 | 13.33° C | 82% | 1018.9 hPa | - | - | - | - |
| 1788484769 | 13.33° C | 80% | 1018.9 hPa | - | - | - | - |
| 1788480566 | 14.44° C | 77% | 1019 hPa | - | - | - | - |
| 1788475766 | 14.44° C | 71% | 1019.4 hPa | - | - | - | - |
| 1788475166 | 15° C | 70% | 1019.3 hPa | - | - | - | - |
| 1788474565 | 15° C | 69% | 1019.4 hPa | - | - | - | - |
| 1788473965 | 15° C | 69% | 1019.4 hPa | - | - | - | - |
| 1788473365 | 14.44° C | 70% | 1019.2 hPa | - | - | - | - |
| 1788472766 | 14.44° C | 69% | 1019.2 hPa | - | - | - | - |
| 1788471565 | 15° C | 67% | 1019.3 hPa | - | - | - | - |
| 1788470965 | 15° C | 66% | 1019.2 hPa | - | - | - | - |
* Rain since midnight (hover to see other rain measurements)
** Current wind speed in m/s (hover to see current wind gust speed)